DateTimeUTC,F1_A11,F1_S11,BsB_S11,BsG_S11,BsR_S11,BbsB_S11,BbsG_S11,BbsR_S11,BaB_A11,BaG_A11,BaR_A11,Tu_S11,T_S11,Uu_S11,U_S11,P_S11,T1_A11
2021-04-01T11:00:00Z,00000200,21000000,,,,,,,0000.12,0000.04,-000.06,16.2,23.4,,00.0,0656.0,30.9
2021-04-01T11:01:00Z,00000200,21000000,,,,,,,-000.11,0000.26,0000.20,16.2,23.4,,00.0,0656.0,30.9
2021-04-01T11:02:00Z,00000200,21000000,,,,,,,0000.30,-000.37,0000.08,16.2,23.4,,00.0,0656.0,30.9
2021-04-01T11:03:00Z,00000200,61000000,,,,,,,0000.80,0000.98,0000.19,16.2,23.4,,00.0,0656.0,30.9
2021-04-01T11:04:00Z,00000200,41000000,0000.76,0000.74,0000.27,-000.35,0000.03,0000.04,0000.16,0000.03,0000.26,16.3,23.2,,00.0,0656.8,30.9
2021-04-01T11:05:00Z,00000200,01000000,0000.60,0000.78,0000.34,-000.10,0000.06,0000.04,0000.19,0000.56,0000.23,16.3,23.1,,00.0,0656.8,30.8
2021-04-01T11:06:00Z,00000200,01000000,0000.66,0000.31,0000.56,-000.01,-000.06,0000.32,0000.22,-000.51,0000.23,16.3,23.1,,00.0,0656.8,30.8
2021-04-01T11:07:00Z,00000200,01000000,0000.81,0000.51,0000.22,0000.20,0000.05,-000.12,0000.05,0000.39,0000.06,16.2,23.1,,00.0,0656.8,30.8
2021-04-01T11:08:00Z,00000200,01000000,0000.28,0000.64,0000.29,-000.20,0000.16,0000.09,0000.14,0000.18,0000.43,16.2,23.1,,00.0,0656.8,30.8
2021-04-01T11:09:00Z,00000200,01000000,-000.08,0000.43,0000.16,-000.02,0000.09,0000.16,0000.42,0000.44,-000.34,16.2,23.1,,00.0,0656.8,30.8
2021-04-01T11:10:00Z,00000200,01000000,0000.90,0000.54,0000.46,0000.09,-000.03,0000.16,0000.11,0000.17,0000.26,16.2,23.1,,00.0,0656.8,30.8
2021-04-01T11:11:00Z,00000200,01000000,0000.24,0000.42,0000.54,0000.16,-000.08,0000.13,0000.30,0000.46,0000.19,16.3,23.1,,00.0,0656.8,30.9
2021-04-01T11:12:00Z,00000200,01000000,0000.27,0000.58,0000.26,-000.30,0000.26,0000.15,0000.32,0000.14,0000.48,16.4,23.1,,00.0,0656.8,30.9
2021-04-01T11:13:00Z,00000200,01000000,0000.41,0000.36,0000.45,0000.86,-000.02,-000.01,0000.35,-000.01,0000.34,16.4,23.1,,00.0,0656.9,30.9
2021-04-01T11:14:00Z,00000200,01000000,0000.47,0000.56,0000.20,-000.14,0000.39,0000.17,-000.06,0000.60,0000.08,16.4,23.1,,00.0,0656.8,30.9
2021-04-01T11:15:00Z,00000200,01000000,0000.48,0000.72,0000.43,0000.13,-000.08,0000.22,0000.34,0000.12,-000.01,16.4,23.1,,00.0,0656.9,30.9
2021-04-01T11:16:00Z,00000200,01000000,0001.17,0000.78,0000.28,0000.23,0000.14,0000.38,0000.40,0000.03,-000.27,16.4,23.1,,00.0,0656.9,30.9
2021-04-01T11:17:00Z,00000200,01000000,-000.26,0000.65,0000.40,-000.05,0000.13,0000.49,-000.04,0000.08,0000.59,16.4,23.1,,00.0,0656.9,30.9
2021-04-01T11:18:00Z,00000200,01000000,0000.48,0000.86,0000.11,-000.16,-000.04,0000.33,0000.21,0000.11,-000.24,16.4,23.1,,00.0,0657.0,30.9
2021-04-01T11:19:00Z,00000200,01000000,0000.53,0000.57,0000.52,0000.07,0000.36,0000.25,0000.27,0000.04,0000.44,16.4,23.1,,00.0,0657.0,30.9
2021-04-01T11:20:00Z,00000200,01000000,0000.23,0000.39,0000.08,0000.20,0000.16,0000.21,0000.11,0000.44,0000.14,16.3,23.1,,00.0,0657.0,30.9
2021-04-01T11:21:00Z,00000200,01000000,0000.61,0000.57,0000.50,-000.04,0000.08,0000.43,0000.17,-000.00,-000.09,16.3,23.1,,00.0,0657.1,30.9
2021-04-01T11:22:00Z,00000200,01000000,0000.50,0000.60,0000.31,0000.27,0000.25,0000.00,0000.31,-000.01,0000.07,16.3,23.1,,00.0,0657.0,30.8
2021-04-01T11:23:00Z,00000200,01000000,0000.25,0000.48,0000.39,0000.42,-000.03,0000.18,0000.24,0000.41,0000.23,16.3,23.1,,00.0,0657.0,30.8
2021-04-01T11:24:00Z,00000200,01000000,0000.86,0000.74,0000.28,-000.15,0000.16,-000.12,0000.26,0000.17,0000.26,16.3,23.1,,00.0,0657.0,30.8
2021-04-01T11:25:00Z,00000200,01000000,0000.14,0000.97,0000.14,0000.12,-000.04,0000.28,0000.24,0000.27,0000.22,16.3,23.0,,00.0,0657.1,30.8
2021-04-01T11:26:00Z,00000200,01000000,0001.06,0000.59,0000.23,0000.18,0000.07,0000.42,0000.19,0000.40,0000.74,16.4,23.1,,00.0,0657.1,30.9
2021-04-01T11:27:00Z,00000200,01000000,0000.81,0000.61,0000.42,-000.21,0000.13,0000.22,0000.11,0000.26,-000.23,16.4,23.1,,00.0,0657.1,30.9
2021-04-01T11:28:00Z,00000200,01000000,-000.01,0000.57,0000.63,0000.07,0000.07,0000.28,0000.40,0000.27,0000.65,16.5,23.2,,00.0,0657.2,30.9
2021-04-01T11:29:00Z,00000200,01000000,-000.05,0000.81,0000.52,-000.00,-000.02,0000.21,0000.31,0000.19,-000.43,16.5,23.2,,00.0,0657.2,30.9
2021-04-01T11:30:00Z,00000200,01000000,0000.71,0000.42,0000.25,-000.71,0000.20,0000.18,-000.02,0000.18,-000.05,16.5,23.2,,00.0,0657.2,30.9
2021-04-01T11:31:00Z,00000200,01000000,0000.19,0000.84,0000.27,-000.04,0000.10,0000.02,0000.14,0000.10,0000.10,16.5,23.2,,00.0,0657.3,30.9
2021-04-01T11:32:00Z,00000200,01000000,0000.05,0000.68,0000.31,-000.22,0000.04,0000.08,0000.01,-000.08,0000.06,16.5,23.2,,00.0,0657.3,30.9
2021-04-01T11:33:00Z,00000200,01000000,0000.36,0000.52,0000.18,0000.22,0000.42,-000.05,-000.16,0000.10,0000.16,16.5,23.2,,00.0,0657.3,30.9
2021-04-01T11:34:00Z,00000200,01000000,0000.82,0000.24,0000.58,-000.09,0000.33,-000.13,0000.01,-000.10,-000.18,16.5,23.1,,00.0,0657.3,30.9
2021-04-01T11:35:00Z,00000200,01000000,0000.49,0000.35,0000.38,0000.38,0000.18,0000.10,0000.34,0000.40,0000.12,16.4,23.1,,00.0,0657.3,30.9
2021-04-01T11:36:00Z,00000200,01000000,0000.60,0000.71,0000.61,0000.18,-000.00,0000.16,0000.27,-000.06,0000.13,16.4,23.1,,00.0,0657.3,30.9
2021-04-01T11:37:00Z,00000200,01000000,0000.29,0000.64,0000.16,0000.24,-000.03,0000.10,-000.32,-000.11,-000.08,16.4,23.1,,00.0,0657.3,30.8
2021-04-01T11:38:00Z,00000200,01000000,-000.16,0000.57,0000.47,0000.72,0000.29,0000.19,0000.56,0000.15,0000.15,16.4,23.1,,00.0,0657.3,30.8
2021-04-01T11:39:00Z,00000200,01000000,-000.17,0000.40,0000.37,-000.43,0000.26,0000.30,0000.22,0000.28,0000.59,16.4,23.1,,00.0,0657.4,30.8
2021-04-01T11:40:00Z,00000200,01000000,0000.27,0000.45,0000.37,0000.08,0000.05,0000.28,0000.39,0000.28,0000.24,16.4,23.1,,00.0,0657.3,30.8
2021-04-01T11:41:00Z,00000200,01000000,0000.61,0000.69,0000.40,0000.23,-000.06,0000.24,0000.01,-000.01,-000.02,16.4,23.1,,00.0,0657.3,30.9
2021-04-01T11:42:00Z,00000200,01000000,-000.12,0000.54,0000.35,-000.06,0000.29,0000.02,0000.13,0000.48,0000.08,16.5,23.1,,00.0,0657.3,30.9
2021-04-01T11:43:00Z,00000200,01000000,-000.48,0000.29,0000.46,0000.13,0000.34,0000.11,0000.85,0000.01,0000.60,16.5,23.2,,00.0,0657.2,30.9
2021-04-01T11:44:00Z,00000200,01000000,0000.48,0000.70,0000.10,-000.28,0000.00,0000.06,-000.26,0000.43,-000.37,16.5,23.2,,00.0,0657.3,30.9
2021-04-01T11:45:00Z,00000200,01000000,0000.37,0000.60,0000.37,-000.07,0000.31,0000.11,-000.03,-000.10,0000.08,16.5,23.2,,00.0,0657.3,30.9
2021-04-01T11:46:00Z,00000200,01000000,0001.06,0000.42,0000.53,-000.53,0000.01,0000.05,0000.03,0000.01,0000.09,16.5,23.2,,00.0,0657.3,30.9
2021-04-01T11:47:00Z,00000200,01000000,0000.06,0000.37,0000.56,-000.05,-000.09,0000.28,-000.11,0000.13,0000.25,16.5,23.1,,00.0,0657.3,30.9
2021-04-01T11:48:00Z,00000200,01000000,0000.27,0000.77,0000.45,0000.16,0000.30,0000.22,0000.48,0000.19,0000.13,16.4,23.1,,00.0,0657.3,30.9
2021-04-01T11:49:00Z,00000200,01000000,-000.16,0000.76,0000.36,-000.02,0000.22,0000.34,0000.25,0000.50,-000.41,16.4,23.1,,00.0,0657.3,30.8
2021-04-01T11:50:00Z,00000200,01000000,0000.53,0000.85,0000.42,0000.05,-000.18,0000.36,-000.25,-000.58,0000.08,16.4,23.1,,00.0,0657.4,30.8
2021-04-01T11:51:00Z,00000200,01000000,0000.30,0000.46,0000.32,-000.31,0000.01,-000.01,0000.30,0000.41,-000.05,16.4,23.1,,00.0,0657.3,30.8
2021-04-01T11:52:00Z,00000200,01000000,-000.03,0000.69,0000.50,-000.04,0000.10,0000.16,-000.05,0000.27,0000.54,16.3,23.1,,00.0,0657.3,30.8
2021-04-01T11:53:00Z,00000200,01000000,0000.51,0000.60,0000.41,0000.13,0000.05,0000.27,0000.29,-000.17,0000.02,16.3,23.1,,00.0,0657.3,30.8
2021-04-01T11:54:00Z,00000200,01000000,0000.56,0000.59,0000.51,-000.51,-000.11,0000.33,0000.26,0000.07,0000.24,16.3,23.1,,00.0,0657.4,30.8
2021-04-01T11:55:00Z,00000200,01000000,0000.43,0000.76,0000.40,0000.26,-000.02,0000.10,0000.54,0000.51,0000.20,16.3,23.1,,00.0,0657.5,30.8
2021-04-01T11:56:00Z,00000200,01000000,0000.53,0000.84,0000.40,-000.18,0000.07,0000.12,0000.18,0000.54,0000.56,16.4,23.1,,00.0,0657.5,30.8
2021-04-01T11:57:00Z,00000200,41000000,,,,,,,0000.31,0000.23,0000.34,16.4,23.1,,00.0,0657.4,30.9
2021-04-01T11:58:00Z,00000200,61000000,,,,,,,-000.18,-000.39,-000.44,16.3,23.3,,00.0,0656.5,30.9
2021-04-01T11:59:00Z,00000200,21000000,,,,,,,-000.19,0000.17,-000.01,16.3,23.4,,00.0,0656.5,30.9
